Thedford, NE

1:56 PM CST on February 27, 2017 (GMT -0600)
Thedford

Weather History for KTIF - April, 2014

Change the Weather History Date:

Tuesday, April 8, 2014

  Actual Average (KANW) Record (KANW)
Temperature  
Mean Temperature 46 °F -  
Max Temperature 65 °F 52 °F 71 °F (2005)
Min Temperature 28 °F 31 °F 12 °F (1997)
Degree Days  
Heating Degree Days 18    
Moisture  
Dew Point 25 °F    
Average Humidity 49    
Maximum Humidity 85    
Minimum Humidity 19    
Precipitation  
Precipitation 0.00 in - - ()
Sea Level Pressure  
Sea Level Pressure 30.07 in    
Wind  
Wind Speed 6 mph (WNW)    
Max Wind Speed 14 mph    
Max Gust Speed 18 mph    
Visibility 10 miles    
Events      
Averages and records for this station are not official NWS values.
T = Trace of Precipitation, MM = Missing Value Source: NWS Daily Summary

Daily Weather History Graph

Daily Weather History Graph

Search for Another Location

Airport or City:

Trip Planner

Search our weather history database for the weather conditions in past years. The results will help you decide how hot, cold, wet, or windy it might be!

Date:

Astronomy

Apr. 08, 2014 Rise Set
Actual Time 7:13 AM CDT 8:15 PM CDT
Civil Twilight 6:44 AM CDT 8:44 PM CDT
Nautical Twilight 6:10 AM CDT 9:18 PM CDT
Astronomical Twilight 5:35 AM CDT 9:54 PM CDT
Moon 2:05 PM CDT (4/8) 3:32 AM CDT (4/8)
Length of Visible Light 13h 59m
Length of Day
13h 02m
Waxing Gibbous, 63% of the Moon is Illuminated
Apr 8
Waxing Gibbous
Apr 15
Full
Apr 22
Last Quarter
Apr 29
New
May 6
First Quarter

Hourly Weather History & Observations

Time (CDT) Temp. Windchill Dew Point Humidity Pressure Visibility Wind Dir Wind Speed Gust Speed Precip Events Conditions
12:10 AM 37.6 °F 33.1 °F 30.4 °F 75% 30.08 in 10.0 mi WNW 5.8 mph - N/A   Overcast
12:35 AM 36.3 °F 30.8 °F 29.7 °F 77% 30.08 in 10.0 mi West 6.9 mph - N/A   Mostly Cloudy
12:55 AM 34.2 °F 28.2 °F 28.4 °F 79% 30.08 in 10.0 mi West 6.9 mph - N/A   Scattered Clouds
1:15 AM 34.2 °F 27.5 °F 27.9 °F 78% 30.08 in 10.0 mi WNW 8.1 mph - N/A   Clear
1:35 AM 33.8 °F 27.7 °F 27.5 °F 78% 30.09 in 10.0 mi West 6.9 mph - N/A   Scattered Clouds
1:55 AM 35.1 °F 28.6 °F 27.7 °F 74% 30.09 in 10.0 mi WNW 8.1 mph - N/A   Overcast
2:15 AM 34.5 °F 27.9 °F 27.5 °F 76% 30.09 in 10.0 mi West 8.1 mph - N/A   Overcast
2:35 AM 34.3 °F 28.4 °F 26.6 °F 73% 30.09 in 10.0 mi WNW 6.9 mph - N/A   Overcast
2:55 AM 33.4 °F 27.3 °F 26.2 °F 75% 30.09 in 10.0 mi WNW 6.9 mph - N/A   Scattered Clouds
3:15 AM 33.1 °F 26.9 °F 26.1 °F 75% 30.08 in 10.0 mi WNW 6.9 mph - N/A   Scattered Clouds
3:35 AM 32.2 °F 25.8 °F 26.1 °F 78% 30.08 in 10.0 mi WNW 6.9 mph - N/A   Clear
3:55 AM 31.6 °F 26.0 °F 25.7 °F 79% 30.08 in 10.0 mi WNW 5.8 mph - N/A   Clear
4:15 AM 30.0 °F 24.1 °F 25.3 °F 83% 30.08 in 10.0 mi West 5.8 mph - N/A   Clear
4:35 AM 30.2 °F 23.4 °F 25.5 °F 83% 30.08 in 10.0 mi West 6.9 mph - N/A   Clear
4:55 AM 30.2 °F 23.4 °F 25.3 °F 82% 30.09 in 10.0 mi WNW 6.9 mph - N/A   Clear
5:15 AM 30.4 °F 22.9 °F 25.5 °F 82% 30.09 in 10.0 mi WNW 8.1 mph - N/A   Clear
5:35 AM 31.3 °F 26.6 °F 25.7 °F 80% 30.10 in 10.0 mi WNW 4.6 mph - N/A   Clear
5:50 AM 29.7 °F 23.7 °F 24.8 °F 82% 30.10 in 10.0 mi WNW 5.8 mph - N/A   Clear
6:15 AM 29.8 °F 24.9 °F 25.3 °F 83% 30.10 in 10.0 mi WNW 4.6 mph - N/A   Clear
6:35 AM 30.2 °F 25.4 °F 25.3 °F 82% 30.10 in 10.0 mi WNW 4.6 mph - N/A   Clear
6:55 AM 28.9 °F 22.8 °F 24.6 °F 84% 30.11 in 10.0 mi WNW 5.8 mph - N/A   Clear
7:15 AM 29.1 °F 23.0 °F 25.0 °F 85% 30.11 in 10.0 mi WNW 5.8 mph - N/A   Clear
7:35 AM 30.0 °F - 25.3 °F 83% 30.12 in 10.0 mi Calm Calm - N/A   Clear
7:55 AM 30.7 °F 27.3 °F 25.7 °F 82% 30.13 in 10.0 mi West 3.5 mph - N/A   Clear
8:10 AM 32.0 °F 26.4 °F 26.8 °F 81% 30.13 in 10.0 mi West 5.8 mph - N/A   Clear
8:50 AM 35.2 °F - 28.2 °F 76% 30.14 in 10.0 mi Calm Calm - N/A   Clear
9:15 AM 38.5 °F 35.0 °F 29.8 °F 71% 30.14 in 10.0 mi WNW 4.6 mph - N/A   Clear
9:35 AM 41.7 °F 39.8 °F 31.1 °F 66% 30.14 in 10.0 mi NNW 3.5 mph - N/A   Clear
9:55 AM 44.1 °F 41.5 °F 30.9 °F 60% 30.14 in 10.0 mi North 4.6 mph - N/A   Clear
10:15 AM 46.8 °F - 30.6 °F 53% 30.14 in 10.0 mi Calm Calm - N/A   Clear
10:35 AM 48.7 °F - 29.3 °F 47% 30.14 in 10.0 mi NNE 3.5 mph - N/A   Clear
10:55 AM 50.5 °F - 25.9 °F 38% 30.14 in 10.0 mi North 5.8 mph - N/A   Clear
11:15 AM 52.3 °F - 24.3 °F 34% 30.14 in 10.0 mi NNE 4.6 mph - N/A   Clear
11:35 AM 53.2 °F - 23.7 °F 32% 30.14 in 10.0 mi NE 4.6 mph - N/A   Clear
11:55 AM 54.3 °F - 23.9 °F 31% 30.14 in 10.0 mi NE 4.6 mph - N/A   Clear
12:15 PM 54.7 °F - 23.7 °F 30% 30.14 in 10.0 mi NNW 5.8 mph - N/A   Clear
12:35 PM 55.4 °F - 23.4 °F 29% 30.14 in 10.0 mi Calm Calm - N/A   Clear
12:55 PM 57.0 °F - 23.9 °F 28% 30.13 in 10.0 mi NNW 10.4 mph - N/A   Clear
1:15 PM 58.3 °F - 24.3 °F 27% 30.12 in 10.0 mi NNW 10.4 mph - N/A   Clear
1:35 PM 58.3 °F - 23.7 °F 26% 30.12 in 10.0 mi NNW 11.5 mph 17.3 mph N/A   Clear
1:55 PM 59.4 °F - 22.8 °F 25% 30.11 in 10.0 mi NNW 10.4 mph - N/A   Clear
2:15 PM 59.2 °F - 22.5 °F 24% 30.11 in 10.0 mi NW 11.5 mph 16.1 mph N/A   Clear
2:35 PM 59.9 °F - 21.0 °F 22% 30.10 in 10.0 mi NNW 4.6 mph - N/A   Clear
2:55 PM 62.4 °F - 22.5 °F 22% 30.09 in 10.0 mi North 5.8 mph - N/A   Clear
3:15 PM 62.4 °F - 21.6 °F 21% 30.08 in 10.0 mi North 6.9 mph - N/A   Clear
3:35 PM 62.4 °F - 20.5 °F 20% 30.08 in 10.0 mi West 4.6 mph - N/A   Clear
3:55 PM 62.8 °F - 19.6 °F 19% 30.07 in 10.0 mi NW 10.4 mph - N/A   Clear
4:15 PM 63.5 °F - 20.1 °F 19% 30.05 in 10.0 mi West 4.6 mph - N/A   Clear
4:35 PM 63.7 °F - 19.8 °F 19% 30.05 in 10.0 mi NW 4.6 mph - N/A   Clear
4:55 PM 65.3 °F - 21.4 °F 19% 30.04 in 10.0 mi NW 10.4 mph 18.4 mph N/A   Clear
5:15 PM 64.9 °F - 22.5 °F 20% 30.03 in 10.0 mi NNW 9.2 mph - N/A   Clear
5:55 PM 65.5 °F - 23.7 °F 21% 30.02 in 10.0 mi NW 5.8 mph - N/A   Clear
6:15 PM 65.7 °F - 24.4 °F 21% 30.02 in 10.0 mi NW 6.9 mph 10.4 mph N/A   Clear
6:30 PM 64.8 °F - 25.3 °F 22% 30.02 in 10.0 mi NNW 5.8 mph - N/A   Clear
6:55 PM 64.6 °F - 25.9 °F 23% 30.02 in 10.0 mi WNW 5.8 mph - N/A   Clear
7:15 PM 64.2 °F - 26.2 °F 24% 30.02 in 10.0 mi WNW 8.1 mph - N/A   Clear
7:35 PM 62.8 °F - 26.4 °F 25% 30.01 in 10.0 mi WNW 3.5 mph - N/A   Clear
7:55 PM 61.7 °F - 26.2 °F 26% 30.01 in 10.0 mi Calm Calm - N/A   Clear
8:15 PM 60.4 °F - 26.2 °F 27% 30.00 in 10.0 mi Calm Calm - N/A   Clear
8:35 PM 56.7 °F - 26.2 °F 31% 30.00 in 10.0 mi SE 5.8 mph - N/A   Clear
8:55 PM 51.4 °F - 26.6 °F 38% 29.99 in 10.0 mi SSE 8.1 mph - N/A   Clear
9:15 PM 53.2 °F - 24.8 °F 33% 29.99 in 10.0 mi SSE 8.1 mph - N/A   Clear
9:35 PM 54.7 °F - 23.4 °F 30% 30.00 in 10.0 mi SSE 10.4 mph - N/A   Clear
9:55 PM 52.7 °F - 23.7 °F 32% 30.00 in 10.0 mi South 9.2 mph - N/A   Clear
10:15 PM 52.9 °F - 23.9 °F 32% 29.99 in 10.0 mi South 10.4 mph - N/A   Clear
10:35 PM 51.8 °F - 25.0 °F 35% 29.99 in 10.0 mi South 9.2 mph - N/A   Clear
10:55 PM 50.2 °F - 25.5 °F 38% 29.98 in 10.0 mi South 10.4 mph - N/A   Clear
11:15 PM 50.4 °F - 25.5 °F 38% 29.98 in 10.0 mi South 10.4 mph - N/A   Clear
11:35 PM 50.2 °F - 25.2 °F 38% 29.98 in 10.0 mi South 12.7 mph - N/A   Clear
11:55 PM 49.5 °F - 25.2 °F 39% 29.98 in 10.0 mi South 13.8 mph 18.4 mph N/A   Clear